sat.trackr.live / text

‹ back to catalog

STARLINK-11409 [DTC]

NORAD 63061 · 2025-035K

PAYLOAD ACTIVE UNKNOWN

§ Identity

Operator
Country
US
Launch date
2025-02-21
Launch site
AFETR
Launch vehicle
Mass (kg)
RCS (m²)

Purposes: comms

External: N2YO · Heavens-Above · Gunter

§ Orbital elements

Epoch: 2026-09-21T17:54:58.235040Z

Period
91.67 min
Inclination
43.0011°
Eccentricity
0.0001391
Mean motion
15.70908414 rev/d
Perigee alt
355.4 km
Apogee alt
357.2 km
Semi-major
6,734.4 km
B*
1.0765e-3
RAAN
273.7404°
Arg perigee
274.7600°
Mean anomaly
85.3109°
Rev number
9,205

§ Raw data

STARLINK-11409 [DTC]1 63061U 25035K   26264.74650735  .00140440  00000+0  10765-2 0  99912 63061  43.0011 273.7404 0001391 274.7600  85.3109 15.70908414 92055

JSON: /api/v1/satellites/63061 · /tle

For live sub-satellite position, see the globe view (requires WebGL).

§ Visibility from observer

Set your observer location to see the next 7 days of passes ≥ 10°. The values pass through the URL so the page stays shareable.

No JS? Fill the form by hand. The geolocation button needs JavaScript.